星链-30908 (STARLINK-30908 )

导读 | 星芒AI

STARLINK-30908 是 SpaceX 星链计划中的一颗低轨通信卫星,属于第三代星链卫星(Starlink V1.5 或 V2 型号)。该卫星于2023年发射,部署在约550公里高度的近地轨道,旨在为全球用户提供高速互联网服务。它采用先进的推进系统和激光通信技术,具备更高的带宽和更低的延迟,有助于提升星链网络的覆盖范围与服务质量。该卫星是SpaceX构建全球宽带网络的重要组成部分。

基本信息
目录编号:
58424
目录名称:
STARLINK-30908
国际标识:
2023-180Y
轨道中心:
EARTH
卫星名称:
星链-30908
卫星全名:
星链-30908 (STARLINK-30908 )
卫星状态:
在轨 (已飞行758 天)
发射日期:
2023-11-22 UTC
国别 :
美国 (US)
星等 :
--
轨道信息
数据来源 国际轨道数据
星历时间: 2025-12-19T02:12:24+0800
1天前
查看轨道信息
半长轴: 6937.188km
偏心率: 0.0001465
轨道倾角: 43.002°
近地点辐角 259.971°
升交点赤经 134.604°
平近点角 100.096°
近地点: 558.036km
远地点: 560.07km
周期: 95.837分钟
每日圈数: 15.025454
详细信息
固有亮度:
5
最大亮度:
0.3
卫星平台:
Starlink v2.0 mini
覆盖范围:
全球
运营商:
太空探索技术公司
运营商所在国:
美国
制造商(研发单位):
太空探索技术公司
制造商所在国:
美国
使用方式:
暂无
卫星简介
星链(Starlink)计划是由太空探索技术公司(SpaceX)提出的一个巨型低轨卫星互联网星座项目,计划在2019年至2024年间在太空搭建由约1.2万颗卫星组成的“星链”网络,其中1584颗将部署在地球上空550千米处的近地轨道,并从2020年开始工作。该卫星仍在工作。
2D轨道图
3D轨道图
轨道高度分析图
轨道倾角分析图
轨道综合分析图
查看轨道综合分析图